This is the latest recevied weather packets stored in our database for station/object IR3AS. If no packets are shown the sender has not sent any weather packets the latest 10 day(s).
| Time | Temp. | Humidity | Pressure | Rain* | Wind** | Luminosity | Snow |
|---|---|---|---|---|---|---|---|
| 1787378413 | 16.67° C | 58% | 863.3 hPa | 0 mm | - | - | - |
| 1787378113 | 16.67° C | 60% | 862.5 hPa | 0 mm | - | - | - |
| 1787377813 | 16.11° C | 60% | 862.1 hPa | 0 mm | - | - | - |
| 1787377513 | 15.56° C | 60% | 861.6 hPa | 0 mm | - | - | - |
| 1787377213 | 15° C | 62% | 861.7 hPa | 0 mm | - | - | - |
| 1787376913 | 13.89° C | 63% | 862.4 hPa | 0 mm | - | - | - |
| 1787376613 | 13.33° C | 63% | 861.3 hPa | 0 mm | - | - | - |
| 1787376314 | 12.78° C | 64% | 861.7 hPa | 0 mm | - | - | - |
| 1787376014 | 12.22° C | 65% | 861.5 hPa | 0 mm | - | - | - |
| 1787375714 | 11.67° C | 66% | 860.9 hPa | 0 mm | - | - | - |
| 1787375414 | 11.11° C | 67% | 862.6 hPa | 0 mm | - | - | - |
| 1787375114 | 10.56° C | 68% | 862.5 hPa | 0 mm | - | - | - |
| 1787374814 | 10.56° C | 68% | 861.4 hPa | 0 mm | - | - | - |
| 1787374514 | 10° C | 69% | 859.9 hPa | 0 mm | - | - | - |
| 1787374214 | 10° C | 68% | 862.6 hPa | 0 mm | - | - | - |
| 1787373914 | 10° C | 67% | 860.7 hPa | 0 mm | - | - | - |
| 1787373614 | 9.44° C | 66% | 860.2 hPa | 0 mm | - | - | - |
| 1787373314 | 9.44° C | 65% | 861.5 hPa | 0 mm | - | - | - |
| 1787373014 | 9.44° C | 65% | 857.2 hPa | 0 mm | - | - | - |
| 1787372714 | 9.44° C | 65% | 857.2 hPa | 0 mm | - | - | - |
| 1787372414 | 9.44° C | 65% | 857.2 hPa | 0 mm | - | - | - |
| 1787372114 | 9.44° C | 65% | 857.1 hPa | 0 mm | - | - | - |
| 1787371814 | 9.44° C | 65% | 857.2 hPa | 0 mm | - | - | - |
| 1787371514 | 9.44° C | 65% | 857.1 hPa | 0 mm | - | - | - |
| 1787371214 | 9.44° C | 66% | 857.2 hPa | 0 mm | - | - | - |
* Rain latest hour (hover to see other rain measurements)
** Current wind speed in m/s (hover to see current wind gust speed)